This is the latest recevied weather packets stored in our database for station/object K7LER. If no packets are shown the sender has not sent any weather packets the latest 1 day(s).
| Time | Temp. | Humidity | Pressure | Rain* | Wind** | Luminosity | Snow |
|---|---|---|---|---|---|---|---|
| 1778029836 | 18.33° C | 69% | 1014.8 hPa | 0 mm | 0 m/s | 246 W/m² | - |
| 1778029535 | 17.78° C | 70% | 1015 hPa | 0 mm | 0 m/s | 239 W/m² | - |
| 1778029246 | 17.78° C | 69% | 1015 hPa | 0 mm | 0 m/s | 255 W/m² | - |
| 1778028935 | 17.78° C | 69% | 1014.9 hPa | 0 mm | 0 m/s | 297 W/m² | - |
| 1778028634 | 17.78° C | 68% | 1014.9 hPa | 0 mm | 0 m/s | 345 W/m² | - |
| 1778028351 | 17.78° C | 68% | 1015 hPa | 0 mm | 0 m/s | 373 W/m² | - |
| 1778028047 | 17.78° C | 68% | 1015 hPa | 0 mm | 0 m/s | 390 W/m² | - |
| 1778027733 | 17.78° C | 69% | 1015 hPa | 0 mm | 0 m/s | 408 W/m² | - |
| 1778027442 | 17.78° C | 69% | 1015 hPa | 0 mm | 0 m/s | 413 W/m² | - |
| 1778027137 | 17.78° C | 68% | 1015.1 hPa | 0 mm | 0 m/s | 399 W/m² | - |
| 1778026833 | 17.78° C | 69% | 1015.1 hPa | 0 mm | 0 m/s | 366 W/m² | - |
| 1778026541 | 17.78° C | 69% | 1015.1 hPa | 0 mm | 0 m/s | 343 W/m² | - |
| 1778026235 | 17.78° C | 70% | 1015.2 hPa | 0 mm | 0 m/s | 336 W/m² | - |
| 1778025936 | 17.78° C | 69% | 1015.3 hPa | 0 mm | 0 m/s | 357 W/m² | - |
| 1778025650 | 17.78° C | 69% | 1015.3 hPa | 0 mm | 0 m/s | 390 W/m² | - |
| 1778025334 | 17.78° C | 70% | 1015.2 hPa | 0 mm | 0 m/s | 425 W/m² | - |
| 1778025033 | 17.78° C | 69% | 1015.4 hPa | 0 mm | 0 m/s | 454 W/m² | - |
| 1778024757 | 17.22° C | 71% | 1015.3 hPa | 0 mm | 0 m/s | 503 W/m² | - |
| 1778024433 | 17.22° C | 70% | 1015.4 hPa | 0 mm | 0 m/s | 531 W/m² | - |
| 1778024135 | 17.22° C | 69% | 1015.5 hPa | 0 mm | 0 m/s | 575 W/m² | - |
| 1778023842 | 17.22° C | 71% | 1015.6 hPa | 0 mm | 0 m/s | 591 W/m² | - |
| 1778023534 | 17.22° C | 72% | 1015.6 hPa | 0 mm | 0 m/s | 612 W/m² | - |
| 1778023234 | 17.22° C | 70% | 1015.5 hPa | 0 mm | 0 m/s | 635 W/m² | - |
| 1778022955 | 16.67° C | 72% | 1015.5 hPa | 0 mm | 0 m/s | 687 W/m² | - |
| 1778022634 | 16.67° C | 73% | 1015.5 hPa | 0 mm | 0 m/s | 536 W/m² | - |
* Rain latest hour (hover to see other rain measurements)
** Current wind speed in m/s (hover to see current wind gust speed)